Regional Weather Roundup
Issued by NWS

Home | Current Version | Previous Version | Text Only | Print | Product List | Glossary On
Versions: 1 2 3 4 5 6 7 8 9 10 11 12 13 14 15 16 17 18 19 20 21 22 23 24 25
000
ASUS42 KKEY 222210
RWRKEY

FLORIDA REGIONAL WEATHER ROUNDUP FOR THE FLORIDA KEYS
NATIONAL WEATHER SERVICE KEY WEST FLORIDA
600 PM EDT SUN APR 22 2018

...SOUTH FLORIDA AND THE KEYS...

CITY           SKY/WX    TMP DP  RH WIND       PRES   REMARKS
FORT MYERS     FAIR      85  69  58 S7        29.99R
SW REGIONAL AP PTSUNNY   80  66  62 E17       30.00R
NAPLES         FAIR      83  74  74 S9        29.99R
MIAMI          PTSUNNY   80  71  74 E12       30.00F
WEST KENDALL   FAIR      81  69  67 E12       30.00S
HOMESTEAD      FAIR      81  71  72 E9        29.99S
MARATHON       FAIR      84  72  67 SE9       29.96F
KEY WEST INTL  FAIR      82  73  74 E13       29.97F

...INTERNATIONAL WEATHER...

CITY           SKY/WX    TMP DP  RH WIND       PRES   REMARKS
NASSAU BAHAMAS PTSUNNY   77  73  88 E9        30.03F
CANCUN MEXICO  MOSUNNY   84  73  70 SE14      29.94F HX  91
COZUMEL MEXICO MOSUNNY   86  72  62 SE7       29.92F HX  92

ADJACENT COASTAL WATERS...

STATION/POSITION TIME  SKY/WX   TEMP    WIND        PRES    WAVE
                                AIR SEA DIR/SP/G            HT/PER
                 (UTC)          (F)     (DEG/KT/KT) (MB)    (FT/S)
PULASKI SHOAL LI 2200            79     120/  8/  8 1014.8F
SAND KEY         2150            78                 1014.6F
SOMBRERO KEY     2150            78      80/ 10/ 11 1013.9F
LONG KEY         2200            81 83  120/  9/ 10 1014.4F
MOLASSES REEF    2200            79     150/  9     1015.6F
FOWEY ROCKS      2200            78 78   80/ 12/ 13 1016.7R
Buoy 42078       2130               79                N/A     2/ 5
Buoy 42097       2130               77                N/A     2/ 5

$$




USA.gov is the U.S. government's official web portal to all federal, state and local government web resources and services.